STARLINK-11254, 60731

Orbit data source: Space-Track

STARLINK-11254, 60731 is a payload satellite owned by SpaceX/Seattle (US) in LEO that was launched on Wed, 28 Aug 2024 UTC via an FALCON 9 launch vehicle from the Air Force Eastern Test Range (AFETR). Payload-class satellites include a variety of spacecraft equipped with specific instruments for various scientific and technological missions. These include communications satellites like Starlink; space stations such as the ISS; scientific satellites like the Hubble; Earth observation satellites from companies like Planet Labs, Umbra, and HawkEye 360; GPS; miniature CubeSats for education and research; and military/defense satellites.

Loading next visibility...
Identifier
60731, 2024-152M
Orbit
LEO
Country
Flag of USUS
Related business
Manufacturer
SpaceX/Seattle
Mission
Operational Commercial Communications
Bus & Motor
STARLINK V2M, Unknown motor
Mass
730 kg wet, ~700 kg dry
Launch date (UTC)
2024-08-28 (1 year ago)
Launch vehicle
FALCON 9
Launch site
Air Force Eastern Test Range (AFETR)
Object type
Payload
Rocket body
Debris
Shape & HBR
Box + 2 Pan, 14.5 m
Radar Cross Section
36.964 m², Large (>1 m²)

Expand to show TLE details & history
Last TLE update: 23 hours ago

TLE from 23 hours ago
0 STARLINK-11254
1 60731U 24152M   25242.51874315 -.00001067  00000-0 -39476-5 0  9990
2 60731  53.1591 338.3579 0001347  92.1800 267.9373 15.69711399 58827
Epoch: 2025-08-30T12:26Z
TLE epoch observation values (Epoch: 2025-08-30T12:26:59.408Z)
Latitude
0.00006°
Longitude
172.65853°
Altitude
360.67 km
Speed
7.694 km/s
True Right ascension
22h 33m 25s
True Declination
0° 00' 00"
Sunlit
Object was in full shadow at epoch
Visualization orbit readout
Latitude
Unknown
Longitude
Unknown
Altitude
Unknown
Speed
Unknown
Apparent Right ascension
Unknown
Apparent Declination
Unknown
Sunlit
N/A
Visualization observer readout
Local Sidereal Time
03:02:50
Azimuth
Unknown
Elevation
Unknown
Doppler factor
Unknown
Orbital elements
Apogee altitude
360.891 km
Perigee altitude
359.076 km
Semi-major axis
6,738.121 km
Eccentricity
0.00013
Inclination
53.1591°
RAAN
338.3579°
Arg. of periapsis
92.18°
True anomaly
267.92187°
Mean anomaly
267.9373°
Eccentric anomaly
267.92959°
Mean motion
3.92405 °/min
Orbital period
91.74 mins
BSTAR
-0.0000039476
Loading maneuver chart data...
Computing Atmospheric mass density...
Loading historical data...
Loading historical data...
Loading historical data...
Loading historical data...
Loading historical data...
Loading historical data...
Loading historical data...

Documentation

Showing up to 5 results
|